User: anonymous   Login
Location: Mentone
(34.5413°N, 85.5351°W)
Time: 17:59:04
(UTC-06:00)
Language:

ATLAS 5 CENTAUR R/B - Orbit

View from above orbital plane
View from above orbital plane
View from above satellite
View from above satellite

Ground track
Ground track

The orbit data is extracted from the following two-line orbital elements,

1 31702U 07027B   18315.71286028 0.00000000  00000-0  00000-0 0    04
2 31702  63.3634 168.6339 0336000   8.9837 351.0163 14.18661369    07
Epoch (UTC): 11 November 2018 17:06:31
Eccentricity: 0.0336000
inclination: 63.3634°
perigee height: 587 km
apogee height: 1072 km
right ascension of ascending node: 168.6339°
argument of perigee: 8.9837°
revolutions per day: 14.18661369
mean anomaly at epoch: 351.0163°
orbit number at epoch: 0

The dashed part of the orbit path shows where the satellite is in the earth's shadow,  

DLR